TimeEDT,TemperatureF,Dew PointF,Humidity,Sea Level PressureIn,VisibilityMPH,Wind Direction,Wind SpeedMPH,Gust SpeedMPH,PrecipitationIn,Events,Conditions,WindDirDegrees,DateUTC
12:53 AM,68.0,66.0,93,30.06,6.0,ESE,4.6,-,N/A,,Clear,120,2013-07-03 04:53:00
1:53 AM,68.0,66.0,93,30.06,5.0,Calm,Calm,-,N/A,,Clear,0,2013-07-03 05:53:00
2:53 AM,68.0,66.9,96,30.06,7.0,ESE,3.5,-,N/A,,Mostly Cloudy,110,2013-07-03 06:53:00
3:53 AM,69.1,66.9,93,30.06,7.0,Calm,Calm,-,N/A,,Overcast,0,2013-07-03 07:53:00
4:53 AM,69.1,66.9,93,30.07,7.0,SE,3.5,-,N/A,,Overcast,140,2013-07-03 08:53:00
5:53 AM,68.0,66.0,93,30.09,7.0,SE,4.6,-,N/A,,Partly Cloudy,140,2013-07-03 09:53:00
6:53 AM,69.1,66.9,93,30.11,5.0,SE,3.5,-,N/A,,Clear,130,2013-07-03 10:53:00
7:53 AM,71.1,66.9,87,30.12,10.0,SE,4.6,-,N/A,,Clear,140,2013-07-03 11:53:00
8:53 AM,73.9,68.0,82,30.13,10.0,Variable,4.6,-,N/A,,Clear,0,2013-07-03 12:53:00
9:53 AM,75.9,68.0,76,30.15,10.0,South,5.8,-,N/A,,Scattered Clouds,170,2013-07-03 13:53:00
10:53 AM,78.1,69.1,74,30.16,10.0,South,5.8,-,N/A,,Scattered Clouds,180,2013-07-03 14:53:00
11:53 AM,79.0,69.1,72,30.16,-9999.0,North,-9999.0,-,N/A,,Scattered Clouds,0,2013-07-03 15:53:00
12:26 PM,80.6,69.8,70,30.17,10.0,North,-9999.0,-,N/A,,Mostly Cloudy,0,2013-07-03 16:26:00
12:33 PM,80.6,69.8,70,30.17,10.0,North,-9999.0,-,N/A,,Mostly Cloudy,0,2013-07-03 16:33:00
12:53 PM,80.1,68.0,67,30.15,10.0,North,-9999.0,-,N/A,,Mostly Cloudy,0,2013-07-03 16:53:00
1:53 PM,82.9,68.0,60,30.14,10.0,South,9.2,-,N/A,,Partly Cloudy,190,2013-07-03 17:53:00
2:53 PM,82.9,66.9,58,30.12,10.0,Variable,5.8,-,N/A,,Scattered Clouds,0,2013-07-03 18:53:00
3:53 PM,82.0,66.9,60,30.11,10.0,South,8.1,-,N/A,,Mostly Cloudy,170,2013-07-03 19:53:00
4:53 PM,82.0,68.0,62,30.10,10.0,Calm,Calm,-,0.00,,Partly Cloudy,0,2013-07-03 20:53:00
5:21 PM,80.6,68.0,65,30.12,10.0,Calm,Calm,-,N/A,Thunderstorm,Partly Cloudy,0,2013-07-03 21:21:00
5:53 PM,75.0,69.1,82,30.12,5.0,West,6.9,17.3,0.01,Rain-Thunderstorm,Light Rain,260,2013-07-03 21:53:00
6:13 PM,73.4,68.0,83,30.14,2.5,Variable,5.8,-,0.04,Rain-Thunderstorm,Light Thunderstorms and Rain,0,2013-07-03 22:13:00
6:23 PM,71.6,68.0,88,30.16,3.0,Variable,6.9,-,0.06,Rain-Thunderstorm,Light Thunderstorms and Rain,0,2013-07-03 22:23:00
6:53 PM,72.0,69.1,91,30.13,5.0,Calm,Calm,-,0.06,Rain-Thunderstorm,Light Thunderstorms and Rain,0,2013-07-03 22:53:00
7:01 PM,71.6,69.8,94,30.14,4.0,Calm,Calm,-,0.01,Rain,Light Rain,0,2013-07-03 23:01:00
7:53 PM,70.0,66.9,90,30.14,8.0,ESE,8.1,-,0.04,Rain,Light Rain,120,2013-07-03 23:53:00
8:53 PM,70.0,68.0,93,30.15,10.0,East,4.6,-,0.00,Rain,Light Rain,100,2013-07-04 00:53:00
9:53 PM,69.1,66.9,93,30.15,10.0,SE,5.8,-,0.01,,Mostly Cloudy,130,2013-07-04 01:53:00
10:10 PM,69.8,66.2,88,30.17,9.0,Calm,Calm,-,N/A,,Scattered Clouds,0,2013-07-04 02:10:00
10:53 PM,70.0,66.9,90,30.16,9.0,East,3.5,-,0.00,Rain,Light Rain,100,2013-07-04 02:53:00
11:53 PM,70.0,66.9,90,30.15,9.0,SSE,5.8,-,0.00,,Mostly Cloudy,150,2013-07-04 03:53:00